Tracking 17631 objects as of 5-May-2016
HD Live streaming from Space Station
objects crossing your sky now

GONETS M 03

Track GONETS M 03 now!
10-day predictions
GONETS M 03 is classified as:


NORAD ID: 38734
Int'l Code: 2012-041B
Perigee: 1,486.4 km
Apogee: 1,516.6 km
Inclination: 82.5 °
Period: 115.9 minutes
Semi major axis: 7872 km
RCS: 1.8381 m2 (large)
Launch date: July 28, 2012
Source: Commonwealth of Independent States (former USSR) (CIS)
Launch site: PLESETSK MISSILE AND SPACE COMPLEX (PKMTR)

Gonets-M1 is a telecoms satellites.
Your satellite tracking list
Your tracking list is empty





NASA's NSSDC Master Catalog

Two Line Element Set (TLE):
1 38734U 12041B   16126.27601103  .00000024  00000-0  10000-3 0  9999
2 38734  82.4779 217.8696 0019149 186.8439 173.2384 12.42890535171080
Source of the keplerian elements: AFSPC

N2YO: 372